Вернуться в каталог

SERVIS 2 DEB

АктивенLEO
NORAD 43394·DEBRIS·🇷🇺 Russia

Запущен Jun 2, 2010 с Plesetsk Cosmodrome

Loading…

Ближайшие Пролёты (ближайшие 24 часа)

TLE

СвежийSource: Space-Track

Эпоха: Sep 14, 2026, 09:21 UTC

1 43394U 10023D   26257.38975361  .00007635  00000-0  99233-2 0  9992
2 43394 100.5646 294.9678 0027867 133.2599 227.0871 13.62092190109835

Отслеживайте SERVIS 2 DEB в реальном времени с AllMySat

Download on the App Store